STARLINK-34856, 65687

Orbit data source: Space-Track

STARLINK-34856, 65687 is a payload satellite owned by SpaceX/Seattle (US) in LEO that was launched on Sun, 21 Sep 2025 UTC via an FALCON 9 launch vehicle from the Air Force Eastern Test Range (AFETR). Payload-class satellites include a variety of spacecraft equipped with specific instruments for various scientific and technological missions. These include communications satellites like Starlink; space stations such as the ISS; scientific satellites like the Hubble; Earth observation satellites from companies like Planet Labs, Umbra, and HawkEye 360; GPS; miniature CubeSats for education and research; and military/defense satellites.

Loading next visibility...
Identifier
65687, 2025-212M
Orbit
LEO
Country
Flag of USUS
Related business
Manufacturer
SpaceX/Seattle
Mission
Operational Commercial Communications
Bus & Motor
STARLINK V2MO, Unknown motor
Mass
575 kg wet, ~530 kg dry
Launch date (UTC)
2025-09-21 (9 months ago)
Launch vehicle
FALCON 9
Launch site
Air Force Eastern Test Range (AFETR)
Object type
Payload
Rocket body
Debris
Shape & HBR
Box + 2 Pan, 17.7 m
Radar Cross Section
36.964 m², Large (>1 m²)

Expand to show TLE details & history
Last TLE update: 11 hours ago

TLE from 11 hours ago
0 STARLINK-34856
1 65687U 25212M   26171.44983810  .00012961  00000-0  42851-3 0  9990
2 65687  53.1571 227.8630 0001021  87.4347 272.6771 15.31714169 42939
Epoch: 2026-06-20T10:47Z
TLE epoch observation values (Epoch: 2026-06-20T10:47:46.011Z)
Latitude
-0.00006°
Longitude
157.25695°
Altitude
471.565 km
Speed
7.631 km/s
True Right ascension
15h 11m 27s
True Declination
0° 00' 00"
Sunlit
Object was in full shadow at epoch
Visualization orbit readout
Latitude
Unknown
Longitude
Unknown
Altitude
Unknown
Speed
Unknown
Apparent Right ascension
Unknown
Apparent Declination
Unknown
Sunlit
N/A
Visualization observer readout
Local Sidereal Time
08:33:33
Azimuth
Unknown
Elevation
Unknown
Doppler factor
Unknown
Orbital elements
Apogee altitude
471.654 km
Perigee altitude
470.256 km
Semi-major axis
6,849.092 km
Eccentricity
0.0001
Inclination
53.1571°
RAAN
227.863°
Arg. of periapsis
87.4347°
True anomaly
272.66541°
Mean anomaly
272.6771°
Eccentric anomaly
272.67126°
Mean motion
3.82907 °/min
Orbital period
94.02 mins
BSTAR
0.00042851
Loading maneuver chart data...
Computing Atmospheric mass density...
Loading historical data...
Loading historical data...
Loading historical data...
Loading historical data...
Loading historical data...
Loading historical data...
Loading historical data...

Documentation

Showing up to 5 results
|